| time (UTC) | temp F | wind direction | speed MPH | gust MPH | rain 1hr in | rain 24hr in | rain mn in | humidity % | barometer mb |
| 20260504050524 | 54 | 12 | 5.0 | 10.0 | 0.00 | 0.00 | 0.00 | 88 | 1019.7 |
| 20260504045537 | 54 | 2 | 4.0 | 14.0 | 0.00 | 0.00 | 0.00 | 88 | 1019.8 |
| 20260504045041 | 54 | 11 | 7.0 | 14.0 | 0.00 | 0.00 | 0.00 | 88 | 1019.8 |
| 20260504044544 | 54 | 85 | 4.0 | 10.0 | 0.00 | 0.00 | 0.00 | 88 | 1019.9 |
| 20260504044028 | 54 | 27 | 6.0 | 11.0 | 0.00 | 0.00 | 0.00 | 87 | 1019.9 |
| 20260504043532 | 54 | 58 | 3.0 | 10.0 | 0.00 | 0.00 | 0.00 | 87 | 1019.9 |
| 20260504043036 | 54 | 13 | 5.0 | 12.0 | 0.00 | 0.00 | 0.00 | 87 | 1019.8 |
| 20260504042542 | 54 | 7 | 5.0 | 12.0 | 0.00 | 0.00 | 0.00 | 87 | 1019.8 |
| 20260504042028 | 54 | 6 | 5.0 | 11.0 | 0.00 | 0.00 | 0.00 | 87 | 1019.9 |
| 20260504041534 | 54 | 30 | 6.0 | 11.0 | 0.00 | 0.00 | 0.00 | 86 | 1019.9 |
| 20260504041038 | 54 | 37 | 4.0 | 15.0 | 0.00 | 0.00 | 0.00 | 86 | 1020.2 |
| 20260504040541 | 55 | 20 | 8.0 | 15.0 | 0.00 | 0.00 | 0.00 | 86 | 1020.2 |
| 20260504040028 | 54 | 357 | 7.0 | 15.0 | 0.00 | 0.00 | 0.00 | 86 | 1020.3 |
| 20260504035531 | 55 | 4 | 6.0 | 14.0 | 0.00 | 0.00 | 0.00 | 86 | 1020.2 |
| 20260504035035 | 55 | 34 | 7.0 | 15.0 | 0.00 | 0.00 | 0.00 | 86 | 1020.2 |
| 20260504034537 | 55 | 25 | 7.0 | 15.0 | 0.00 | 0.00 | 0.00 | 86 | 1020.2 |
| 20260504034041 | 54 | 44 | 7.0 | 13.0 | 0.00 | 0.00 | 0.00 | 85 | 1020.3 |
| 20260504033545 | 54 | 57 | 6.0 | 11.0 | 0.00 | 0.00 | 0.00 | 85 | 1020.3 |
| 20260504033029 | 54 | 12 | 7.0 | 11.0 | 0.00 | 0.00 | 0.00 | 85 | 1020.4 |
| 20260504032533 | 54 | 6 | 6.0 | 9.0 | 0.00 | 0.00 | 0.00 | 85 | 1020.4 |
| 20260504032041 | 54 | 22 | 5.0 | 8.0 | 0.00 | 0.00 | 0.00 | 84 | 1020.5 |
| 20260504031544 | 54 | 358 | 3.0 | 8.0 | 0.00 | 0.00 | 0.00 | 84 | 1020.5 |
| 20260504031027 | 54 | 29 | 3.0 | 7.0 | 0.00 | 0.00 | 0.00 | 84 | 1020.5 |
| 20260504030529 | 55 | 8 | 3.0 | 8.0 | 0.00 | 0.00 | 0.00 | 83 | 1020.6 |
| 20260504030034 | 55 | 21 | 4.0 | 9.0 | 0.00 | 0.00 | 0.00 | 83 | 1020.6 |
| 20260504025538 | 55 | 13 | 4.0 | 11.0 | 0.00 | 0.00 | 0.00 | 83 | 1020.6 |
| 20260504025040 | 55 | 20 | 5.0 | 11.0 | 0.00 | 0.00 | 0.00 | 82 | 1020.6 |
| 20260504024601 | 55 | 5 | 5.0 | 9.0 | 0.00 | 0.00 | 0.00 | 82 | 1020.6 |
| 20260504024043 | 55 | 356 | 5.0 | 9.0 | 0.00 | 0.00 | 0.00 | 81 | 1020.6 |
| 20260504023545 | 55 | 13 | 6.0 | 10.0 | 0.00 | 0.00 | 0.00 | 81 | 1020.7 |
| 20260504023026 | 55 | 15 | 5.0 | 11.0 | 0.00 | 0.00 | 0.00 | 80 | 1020.8 |
| 20260504022550 | 55 | 34 | 4.0 | 11.0 | 0.00 | 0.00 | 0.00 | 79 | 1020.8 |
| 20260504022032 | 54 | 15 | 5.0 | 8.0 | 0.00 | 0.00 | 0.00 | 79 | 1020.9 |
| 20260504021537 | 54 | 44 | 5.0 | 8.0 | 0.00 | 0.00 | 0.00 | 78 | 1021.0 |
| 20260504021043 | 54 | 348 | 3.0 | 7.0 | 0.00 | 0.00 | 0.00 | 77 | 1021.0 |
| 20260504020525 | 54 | 23 | 4.0 | 9.0 | 0.00 | 0.00 | 0.00 | 76 | 1021.0 |
| 20260504020051 | 54 | 15 | 3.0 | 9.0 | 0.00 | 0.00 | 0.00 | 76 | 1021.0 |
| 20260504015534 | 54 | 19 | 4.0 | 7.0 | 0.00 | 0.00 | 0.00 | 75 | 1021.2 |
| 20260504015040 | 54 | 1 | 3.0 | 6.0 | 0.00 | 0.00 | 0.00 | 75 | 1021.2 |
| 20260504014543 | 54 | 1 | 4.0 | 8.0 | 0.00 | 0.00 | 0.00 | 74 | 1021.3 |
| 20260504014026 | 54 | 20 | 5.0 | 8.0 | 0.00 | 0.00 | 0.00 | 74 | 1021.2 |
| 20260504013530 | 54 | 53 | 4.0 | 7.0 | 0.00 | 0.00 | 0.00 | 74 | 1021.2 |
| 20260504013034 | 54 | 1 | 4.0 | 7.0 | 0.00 | 0.00 | 0.00 | 74 | 1021.2 |
| 20260504012537 | 54 | 20 | 3.0 | 6.0 | 0.00 | 0.00 | 0.00 | 74 | 1021.2 |
| 20260504012039 | 54 | 18 | 3.0 | 6.0 | 0.00 | 0.00 | 0.00 | 74 | 1021.1 |
| 20260504011541 | 54 | 15 | 4.0 | 7.0 | 0.00 | 0.00 | 0.00 | 74 | 1021.1 |
| 20260504011027 | 54 | 5 | 5.0 | 8.0 | 0.00 | 0.00 | 0.00 | 74 | 1021.0 |
| 20260504010549 | 54 | 14 | 4.0 | 8.0 | 0.00 | 0.00 | 0.00 | 74 | 1021.0 |
| 20260504010035 | 54 | 6 | 5.0 | 8.0 | 0.00 | 0.00 | 0.00 | 74 | 1020.9 |
| 20260504005538 | 54 | 359 | 4.0 | 8.0 | 0.00 | 0.00 | 0.00 | 74 | 1021.0 |
| 20260504005102 | 55 | 24 | 4.0 | 8.0 | 0.00 | 0.00 | 0.00 | 74 | 1020.9 |
| 20260504004543 | 55 | 23 | 4.0 | 8.0 | 0.00 | 0.00 | 0.00 | 73 | 1020.8 |
| 20260504004026 | 55 | 25 | 5.0 | 8.0 | 0.00 | 0.00 | 0.00 | 72 | 1020.8 |
| 20260504003530 | 55 | 53 | 5.0 | 8.0 | 0.00 | 0.00 | 0.00 | 72 | 1020.8 |
| 20260504003034 | 56 | 34 | 5.0 | 10.0 | 0.00 | 0.00 | 0.00 | 73 | 1020.9 |
| 20260504002537 | 55 | 12 | 6.0 | 10.0 | 0.00 | 0.00 | 0.00 | 73 | 1020.9 |
| 20260504002101 | 54 | 27 | 6.0 | 9.0 | 0.00 | 0.00 | 0.00 | 77 | 1021.0 |
| 20260504001603 | 53 | 46 | 2.0 | 4.0 | 0.00 | 0.00 | 0.00 | 82 | 1021.0 |
| 20260504001105 | 52 | 67 | 3.0 | 3.0 | 0.00 | 0.00 | 0.00 | 84 | 1021.1 |
| 20260504000529 | 52 | 112 | 1.0 | 2.0 | 0.00 | 0.00 | 0.00 | 84 | 1021.2 |
| 20260504000056 | 52 | 121 | 0.0 | 0.0 | 0.00 | 0.00 | 0.00 | 83 | 1021.2 |
| 20260503235538 | 52 | 121 | 0.0 | 1.0 | 0.00 | 0.00 | 0.00 | 84 | 1021.2 |
| 20260503235102 | 52 | 121 | 0.0 | 3.0 | 0.00 | 0.00 | 0.00 | 84 | 1021.2 |
| 20260503234525 | 52 | 141 | 1.0 | 3.0 | 0.00 | 0.00 | 0.00 | 84 | 1021.2 |
| 20260503234030 | 52 | 131 | 2.0 | 3.0 | 0.00 | 0.00 | 0.00 | 84 | 1021.3 |
| 20260503233538 | 52 | 135 | 1.0 | 2.0 | 0.00 | 0.00 | 0.00 | 84 | 1021.3 |
| 20260503233040 | 52 | 135 | 0.0 | 2.0 | 0.00 | 0.00 | 0.00 | 84 | 1021.3 |
| 20260503232544 | 52 | 135 | 1.0 | 2.0 | 0.00 | 0.00 | 0.00 | 84 | 1021.3 |
| 20260503232048 | 52 | 139 | 1.0 | 2.0 | 0.00 | 0.00 | 0.00 | 84 | 1021.3 |
| 20260503231529 | 52 | 139 | 1.0 | 2.0 | 0.00 | 0.00 | 0.00 | 84 | 1021.3 |
| 20260503231032 | 52 | 141 | 1.0 | 2.0 | 0.00 | 0.00 | 0.00 | 84 | 1021.3 |
| 20260503230536 | 52 | 141 | 0.0 | 1.0 | 0.00 | 0.00 | 0.00 | 83 | 1021.3 |
| 20260503230041 | 52 | 141 | 0.0 | 2.0 | 0.00 | 0.00 | 0.00 | 83 | 1021.3 |
| 20260503225545 | 52 | 141 | 1.0 | 2.0 | 0.00 | 0.00 | 0.00 | 83 | 1021.3 |
| 20260503225105 | 52 | 141 | 1.0 | 2.0 | 0.00 | 0.00 | 0.00 | 83 | 1021.3 |
| 20260503224604 | 53 | 144 | 1.0 | 2.0 | 0.00 | 0.00 | 0.00 | 82 | 1021.3 |
| 20260503224027 | 53 | 144 | 2.0 | 3.0 | 0.00 | 0.00 | 0.00 | 82 | 1021.4 |
| 20260503223533 | 53 | 143 | 2.0 | 3.0 | 0.00 | 0.00 | 0.00 | 82 | 1021.4 |
| 20260503223037 | 53 | 150 | 1.0 | 3.0 | 0.00 | 0.00 | 0.00 | 82 | 1021.4 |
| 20260503222544 | 53 | 138 | 0.0 | 2.0 | 0.00 | 0.00 | 0.00 | 82 | 1021.4 |
| 20260503222029 | 53 | 138 | 1.0 | 2.0 | 0.00 | 0.00 | 0.00 | 82 | 1021.3 |
| 20260503221531 | 53 | 120 | 1.0 | 2.0 | 0.00 | 0.00 | 0.00 | 82 | 1021.3 |
| 20260503221035 | 53 | 120 | 1.0 | 3.0 | 0.00 | 0.00 | 0.00 | 81 | 1021.1 |
| 20260503220538 | 53 | 123 | 2.0 | 3.0 | 0.00 | 0.00 | 0.00 | 81 | 1021.2 |
| 20260503220044 | 54 | 136 | 2.0 | 3.0 | 0.00 | 0.00 | 0.00 | 80 | 1021.3 |
| 20260503215547 | 54 | 141 | 1.0 | 3.0 | 0.00 | 0.00 | 0.00 | 80 | 1021.3 |
| 20260503215051 | 54 | 151 | 1.0 | 3.0 | 0.00 | 0.00 | 0.00 | 79 | 1021.4 |
| 20260503214551 | 54 | 150 | 2.0 | 3.0 | 0.00 | 0.00 | 0.00 | 79 | 1021.6 |
| 20260503214034 | 54 | 149 | 1.0 | 2.0 | 0.00 | 0.00 | 0.00 | 79 | 1021.7 |
| 20260503213539 | 54 | 139 | 0.0 | 0.0 | 0.00 | 0.00 | 0.00 | 80 | 1021.6 |
| 20260503213039 | 54 | 192 | 0.0 | 2.0 | 0.00 | 0.00 | 0.00 | 79 | 1021.6 |
| 20260503212536 | 54 | 197 | 1.0 | 2.0 | 0.00 | 0.00 | 0.00 | 79 | 1021.7 |
| 20260503212040 | 54 | 200 | 1.0 | 2.0 | 0.00 | 0.00 | 0.00 | 78 | 1021.6 |
| 20260503211544 | 55 | 220 | 1.0 | 3.0 | 0.00 | 0.00 | 0.00 | 78 | 1021.7 |
| 20260503211048 | 55 | 213 | 2.0 | 3.0 | 0.00 | 0.00 | 0.00 | 78 | 1021.8 |
| 20260503210529 | 55 | 243 | 2.0 | 4.0 | 0.00 | 0.00 | 0.00 | 77 | 1021.8 |
| 20260503210033 | 55 | 214 | 2.0 | 4.0 | 0.00 | 0.00 | 0.00 | 77 | 1021.8 |
| 20260503205533 | 55 | 250 | 2.0 | 4.0 | 0.00 | 0.00 | 0.00 | 77 | 1021.8 |
| 20260503205033 | 56 | 234 | 2.0 | 4.0 | 0.00 | 0.00 | 0.00 | 76 | 1021.8 |
| 20260503204535 | 56 | 217 | 2.0 | 4.0 | 0.00 | 0.00 | 0.00 | 76 | 1021.8 |
| 20260503204038 | 56 | 227 | 3.0 | 4.0 | 0.00 | 0.00 | 0.00 | 75 | 1021.8 |
| 20260503203542 | 57 | 201 | 2.0 | 5.0 | 0.00 | 0.00 | 0.00 | 74 | 1021.9 |
| 20260503203044 | 57 | 223 | 3.0 | 6.0 | 0.00 | 0.00 | 0.00 | 73 | 1021.9 |
| 20260503202528 | 57 | 219 | 4.0 | 6.0 | 0.00 | 0.00 | 0.00 | 73 | 1022.0 |
| 20260503202029 | 58 | 286 | 4.0 | 6.0 | 0.00 | 0.00 | 0.00 | 73 | 1022.1 |
| 20260503201554 | 58 | 195 | 4.0 | 6.0 | 0.00 | 0.00 | 0.00 | 71 | 1022.1 |
| 20260503201035 | 58 | 187 | 4.0 | 7.0 | 0.00 | 0.00 | 0.00 | 71 | 1022.1 |
| 20260503200537 | 58 | 192 | 5.0 | 8.0 | 0.00 | 0.00 | 0.00 | 70 | 1022.0 |
| 20260503200040 | 58 | 175 | 4.0 | 8.0 | 0.00 | 0.00 | 0.00 | 69 | 1022.0 |
| 20260503195527 | 59 | 172 | 4.0 | 7.0 | 0.00 | 0.00 | 0.00 | 68 | 1022.0 |
| 20260503195051 | 59 | 148 | 4.0 | 8.0 | 0.00 | 0.00 | 0.00 | 65 | 1021.9 |
| 20260503194536 | 59 | 162 | 5.0 | 9.0 | 0.00 | 0.00 | 0.00 | 64 | 1021.9 |
| 20260503194058 | 59 | 172 | 5.0 | 9.0 | 0.00 | 0.00 | 0.00 | 63 | 1021.9 |
| 20260503193540 | 59 | 150 | 4.0 | 8.0 | 0.00 | 0.00 | 0.00 | 63 | 1021.8 |
| 20260503193043 | 60 | 136 | 4.0 | 9.0 | 0.00 | 0.00 | 0.00 | 63 | 1021.8 |
| 20260503192546 | 60 | 172 | 4.0 | 9.0 | 0.00 | 0.00 | 0.00 | 62 | 1021.9 |
| 20260503192029 | 60 | 167 | 4.0 | 9.0 | 0.00 | 0.00 | 0.00 | 59 | 1021.9 |
| 20260503191531 | 60 | 176 | 5.0 | 9.0 | 0.00 | 0.00 | 0.00 | 60 | 1021.9 |
| 20260503191034 | 60 | 171 | 4.0 | 9.0 | 0.00 | 0.00 | 0.00 | 60 | 1021.9 |
| 20260503190535 | 60 | 161 | 6.0 | 8.0 | 0.00 | 0.00 | 0.00 | 60 | 1022.0 |
| 20260503190058 | 60 | 198 | 4.0 | 10.0 | 0.00 | 0.00 | 0.00 | 61 | 1021.9 |
| 20260503185540 | 60 | 163 | 6.0 | 10.0 | 0.00 | 0.00 | 0.00 | 60 | 1022.0 |
| 20260503185043 | 60 | 169 | 5.0 | 9.0 | 0.00 | 0.00 | 0.00 | 61 | 1022.1 |
| 20260503184544 | 61 | 171 | 5.0 | 8.0 | 0.00 | 0.00 | 0.00 | 62 | 1022.2 |
| 20260503184108 | 61 | 179 | 4.0 | 8.0 | 0.00 | 0.00 | 0.00 | 61 | 1022.3 |
| 20260503183531 | 61 | 206 | 6.0 | 8.0 | 0.00 | 0.00 | 0.00 | 62 | 1022.4 |
| 20260503183033 | 61 | 231 | 4.0 | 8.0 | 0.00 | 0.00 | 0.00 | 61 | 1022.5 |
| 20260503182538 | 60 | 160 | 4.0 | 8.0 | 0.00 | 0.00 | 0.00 | 61 | 1022.5 |
| 20260503182039 | 60 | 183 | 5.0 | 10.0 | 0.00 | 0.00 | 0.00 | 61 | 1022.6 |
| 20260503181541 | 60 | 167 | 5.0 | 10.0 | 0.00 | 0.00 | 0.00 | 61 | 1022.6 |
| 20260503181027 | 60 | 178 | 4.0 | 9.0 | 0.00 | 0.00 | 0.00 | 62 | 1022.6 |
| 20260503180551 | 60 | 191 | 5.0 | 9.0 | 0.00 | 0.00 | 0.00 | 61 | 1022.6 |
| 20260503180032 | 60 | 170 | 5.0 | 9.0 | 0.00 | 0.00 | 0.00 | 61 | 1022.7 |
| 20260503175533 | 60 | 162 | 5.0 | 7.0 | 0.00 | 0.00 | 0.00 | 61 | 1022.7 |
| 20260503175033 | 60 | 197 | 3.0 | 9.0 | 0.00 | 0.00 | 0.00 | 61 | 1022.7 |
| 20260503174533 | 60 | 146 | 6.0 | 10.0 | 0.00 | 0.00 | 0.00 | 61 | 1022.7 |
| 20260503174035 | 60 | 191 | 5.0 | 10.0 | 0.00 | 0.00 | 0.00 | 61 | 1022.7 |
| 20260503173533 | 59 | 176 | 4.0 | 9.0 | 0.00 | 0.00 | 0.00 | 60 | 1022.7 |
| 20260503173036 | 60 | 156 | 4.0 | 9.0 | 0.00 | 0.00 | 0.00 | 60 | 1022.7 |
| 20260503172543 | 60 | 191 | 5.0 | 9.0 | 0.00 | 0.00 | 0.00 | 60 | 1022.7 |
| 20260503172046 | 59 | 190 | 5.0 | 10.0 | 0.00 | 0.00 | 0.00 | 61 | 1022.8 |
| 20260503171527 | 60 | 177 | 6.0 | 10.0 | 0.00 | 0.00 | 0.00 | 60 | 1022.8 |
| 20260503171050 | 59 | 201 | 8.0 | 10.0 | 0.00 | 0.00 | 0.00 | 60 | 1022.8 |
| 20260503170532 | 59 | 164 | 6.0 | 9.0 | 0.00 | 0.00 | 0.00 | 60 | 1022.9 |
| 20260503160104 | 59 | 115 | 2.0 | 7.0 | 0.00 | 0.00 | 0.00 | 56 | 1024.2 |
| 20260503150604 | 56 | 86 | 5.0 | 8.0 | 0.00 | 0.00 | 0.00 | 60 | 1024.9 |
| 20260503131036 | 49 | 191 | 4.0 | 13.0 | 0.00 | 0.00 | 0.00 | 78 | 1026.0 |
| 20260503130539 | 48 | 142 | 9.0 | 13.0 | 0.00 | 0.00 | 0.00 | 78 | 1026.1 |
| 20260503110534 | 45 | 150 | 6.0 | 9.0 | 0.00 | 0.00 | 0.00 | 79 | 1025.1 |
| 20260503081539 | 44 | 176 | 5.0 | 9.0 | 0.00 | 0.00 | 0.00 | 82 | 1024.5 |
| 20260503081103 | 44 | 177 | 4.0 | 8.0 | 0.00 | 0.00 | 0.00 | 82 | 1024.5 |
| 20260503080544 | 44 | 193 | 4.0 | 8.0 | 0.00 | 0.00 | 0.00 | 82 | 1024.5 |
| 20260503072525 | 45 | 188 | 3.0 | 7.0 | 0.00 | 0.00 | 0.00 | 82 | 1024.6 |